Tracking 35275 objects as of 8-Sep-2026
HD Live streaming from Space Station
objects crossing your sky now

THORAD AGENA D DEB

Track THORAD AGENA D DEB now!
10-day predictions


NORAD ID: 4778
Int'l Code: 1970-025DY
Launch date: April 8, 1970
Source: United States (US)
Launch site: AIR FORCE WESTERN TEST RANGE (AFWTR)

Note: This is SATELLITE DEBRIS
Your satellite tracking list
Your tracking list is empty




NASA's NSSDC Master Catalog

Two Line Element Set (TLE):
1 04778U 70025DY  26249.13261090  .00000069  00000-0  16531-3 0  9999
2 04778  99.9576 314.2764 0035042 217.8144 172.1514 13.55693910782393
Source of the keplerian elements: AFSPC